EDT,Max TemperatureF,Mean TemperatureF,Min TemperatureF,Max Dew PointF,MeanDew PointF,Min DewpointF,Max Humidity, Mean Humidity, Min Humidity, Max Sea Level PressureIn, Mean Sea Level PressureIn, Min Sea Level PressureIn, Max VisibilityMiles, Mean VisibilityMiles, Min VisibilityMiles, Max Wind SpeedMPH, Mean Wind SpeedMPH, Max Gust SpeedMPH,PrecipitationIn, CloudCover, Events, WindDirDegrees
2013-9-1,90,83,76,74,71,68,82,67,52,30.00,29.97,29.94,10,10,10,13,3,,0.00,5,,147
2013-9-2,90,83,75,75,72,69,90,73,56,30.03,29.99,29.95,10,9,2,25,4,36,0.53,5,Rain-Thunderstorm,216
2013-9-3,92,83,73,74,71,69,94,73,52,30.03,29.98,29.94,10,10,10,13,5,17,0.00,4,,118
2013-9-4,91,87,83,76,74,72,74,67,59,30.07,30.02,29.96,10,10,10,15,7,22,0.00,6,Thunderstorm,92
2013-9-5,92,86,80,75,74,72,79,68,56,30.07,30.04,30.00,10,10,10,14,9,17,0.00,5,,92
2013-9-6,92,86,80,77,74,70,85,69,52,30.04,29.99,29.94,10,10,10,16,8,21,T,5,Rain,86
2013-9-7,86,79,72,77,73,70,91,76,61,29.99,29.95,29.91,10,9,1,17,5,24,0.55,6,Rain-Thunderstorm,6
2013-9-8,89,81,73,74,72,68,87,72,57,29.95,29.91,29.87,10,10,10,14,4,15,0.01,4,Thunderstorm,7
2013-9-9,90,83,76,77,73,69,88,77,65,30.00,29.96,29.91,10,10,10,21,7,26,0.04,4,Thunderstorm,88
2013-9-10,88,82,76,76,73,64,88,77,65,30.06,30.01,29.96,10,10,2,28,10,37,0.41,5,Rain-Thunderstorm,76
2013-9-11,84,79,74,77,74,72,85,77,69,30.06,30.02,29.98,10,9,1,20,7,28,0.25,5,Rain-Thunderstorm,102
2013-9-12,85,81,76,77,75,72,94,84,74,30.01,29.96,29.90,10,10,10,15,5,20,0.04,7,Rain-Thunderstorm,105
2013-9-13,88,81,73,77,75,73,100,84,68,29.90,29.87,29.81,10,10,10,12,5,15,T,5,Rain-Thunderstorm,90
2013-9-14,90,83,76,77,75,72,94,75,56,29.97,29.90,29.83,10,10,10,15,6,18,0.00,3,,124
2013-9-15,88,81,74,79,77,71,100,88,75,30.07,30.01,29.93,10,8,0,24,7,35,1.25,6,Rain-Thunderstorm,108
2013-9-16,87,81,75,79,76,73,100,86,72,30.06,30.02,29.97,10,8,0,30,10,37,0.58,7,Fog-Rain-Thunderstorm,76
2013-9-17,81,77,73,77,72,66,87,83,79,30.06,29.98,29.93,10,9,1,23,8,29,0.62,6,Rain-Thunderstorm,85
2013-9-18,86,80,73,77,73,70,90,80,70,30.02,29.98,29.92,10,8,0,17,6,22,2.65,6,Fog-Rain-Thunderstorm,108
2013-9-19,88,81,73,77,74,68,88,76,63,30.01,29.98,29.93,10,10,10,17,9,24,T,5,Rain,57
2013-9-20,87,80,73,70,68,66,79,66,53,30.00,29.95,29.91,10,10,10,18,9,22,T,3,,44
2013-9-21,87,80,72,74,71,67,79,71,63,29.92,29.85,29.79,10,10,10,13,6,17,0.00,3,,92
2013-9-22,89,82,75,76,74,71,91,76,61,29.87,29.81,29.76,10,10,10,15,6,24,0.00,5,,181
2013-9-23,87,82,77,77,75,72,88,79,70,29.98,29.93,29.86,10,10,2,18,4,23,0.26,6,Rain,192
2013-9-24,89,82,74,79,74,70,90,81,72,29.99,29.93,29.88,10,9,0,20,5,25,1.14,7,Rain-Thunderstorm,198
2013-9-25,90,82,73,77,72,68,88,72,55,29.89,29.86,29.79,10,10,10,22,7,28,T,5,Rain,256
2013-9-26,90,83,75,78,75,73,94,77,59,29.86,29.83,29.79,10,9,0,28,8,37,0.72,5,Fog-Rain-Thunderstorm,252
2013-9-27,89,81,73,74,71,68,94,75,55,29.91,29.86,29.82,10,10,10,17,7,20,0.02,3,,351
2013-9-28,88,82,75,73,71,65,94,75,55,29.96,29.93,29.88,10,10,10,18,9,23,0.03,4,Rain,39
2013-9-29,88,80,72,70,67,66,87,69,51,29.97,29.93,29.89,10,10,10,14,6,18,0.00,4,,69
2013-9-30,88,81,73,70,68,67,87,69,51,30.01,29.95,29.91,10,10,10,13,6,16,0.00,3,,101